Satellite: NO-44
Catalog number: 26931
Epoch time:      11097.73358311
Element set:     721
Inclination:      067.0513 deg
RA of node:       165.0643 deg
Eccentricity:    0.0007227
Arg of perigee:   269.2019 deg
Mean anomaly:     090.8262 deg
Mean motion:   14.29645946 rev/day
Decay rate:        1.0e-08 rev/day^2
Epoch rev:           49685
Checksum:              304

Satellite: SO-50
Catalog number: 27607
Epoch time:      11096.71700708
Element set:     433
Inclination:      064.5585 deg
RA of node:       184.8423 deg
Eccentricity:    0.0064989
Arg of perigee:   337.4727 deg
Mean anomaly:     022.3513 deg
Mean motion:   14.71687694 rev/day
Decay rate:       6.28e-06 rev/day^2
Epoch rev:           44557
Checksum:              336

Satellite: CO-55
Catalog number: 27844
Epoch time:      11097.54324958
Element set:      82
Inclination:      098.7059 deg
RA of node:       107.2707 deg
Eccentricity:    0.0010440
Arg of perigee:   045.8406 deg
Mean anomaly:     314.3629 deg
Mean motion:   14.20789733 rev/day
Decay rate:       7.10e-06 rev/day^2
Epoch rev:           40288
Checksum:              313

Satellite: CO-57
Catalog number: 27848
Epoch time:      11096.56011259
Element set:      30
Inclination:      098.7146 deg
RA of node:       105.4657 deg
Eccentricity:    0.0010562
Arg of perigee:   052.3016 deg
Mean anomaly:     307.9130 deg
Mean motion:   14.20570111 rev/day
Decay rate:       2.01e-06 rev/day^2
Epoch rev:           40269
Checksum:              263

Satellite: AO-51
Catalog number: 28375
Epoch time:      11097.48132580
Element set:     938
Inclination:      098.0915 deg
RA of node:       079.6682 deg
Eccentricity:    0.0083314
Arg of perigee:   285.2699 deg
Mean anomaly:     073.9303 deg
Mean motion:   14.40740634 rev/day
Decay rate:       1.31e-06 rev/day^2
Epoch rev:           35588
Checksum:              332

Satellite: CP3
Catalog number: 31129
Epoch time:      11096.64237937
Element set:     837
Inclination:      097.9065 deg
RA of node:       124.9728 deg
Eccentricity:    0.0102959
Arg of perigee:   043.6931 deg
Mean anomaly:     317.2338 deg
Mean motion:   14.52424550 rev/day
Decay rate:       9.00e-06 rev/day^2
Epoch rev:           21045
Checksum:              305

Satellite: CO-65
Catalog number: 32785
Epoch time:      11097.65601493
Element set:     957
Inclination:      097.8552 deg
RA of node:       162.8798 deg
Eccentricity:    0.0015803
Arg of perigee:   048.6984 deg
Mean anomaly:     311.5594 deg
Mean motion:   14.81907234 rev/day
Decay rate:      1.172e-05 rev/day^2
Epoch rev:           15909
Checksum:              353

Satellite: KKS-1
Catalog number: 33493
Epoch time:      11097.85713606
Element set:     466
Inclination:      098.1152 deg
RA of node:       225.4932 deg
Eccentricity:    0.0018804
Arg of perigee:   267.7626 deg
Mean anomaly:     092.1430 deg
Mean motion:   14.81497010 rev/day
Decay rate:      3.988e-05 rev/day^2
Epoch rev:           11910
Checksum:              306

Satellite: SOHLA-1
Catalog number: 33496
Epoch time:      11096.90004653
Element set:    0384
Inclination:      098.0721 deg
RA of node:       207.4821 deg
Eccentricity:    0.0006665
Arg of perigee:   359.5320 deg
Mean anomaly:     000.5877 deg
Mean motion:   14.69584472 rev/day
Decay rate:       4.91e-06 rev/day^2
Epoch rev:           11801
Checksum:              298

Satellite: TISAT-1
Catalog number: 36799
Epoch time:      11097.71318270
Element set:     741
Inclination:      098.1068 deg
RA of node:       165.2517 deg
Eccentricity:    0.0016379
Arg of perigee:   142.1276 deg
Mean anomaly:     218.1085 deg
Mean motion:   14.80424543 rev/day
Decay rate:      1.659e-05 rev/day^2
Epoch rev:            3988
Checksum:              320

Satellite: STUDSAT
Catalog number: 36801
Epoch time:      11097.78867209
Element set:     163
Inclination:      098.1114 deg
RA of node:       165.1747 deg
Eccentricity:    0.0014972
Arg of perigee:   130.7604 deg
Mean anomaly:     229.4915 deg
Mean motion:   14.80280920 rev/day
Decay rate:      5.444e-05 rev/day^2
Epoch rev:            3988
Checksum:              311

Satellite: RAX
Catalog number: 37223
Epoch time:      11089.46431449
Element set:    0122
Inclination:      071.9716 deg
RA of node:       212.4675 deg
Eccentricity:    0.0019443
Arg of perigee:   068.5267 deg
Mean anomaly:     291.7923 deg
Mean motion:   14.77296529 rev/day
Decay rate:       6.60e-06 rev/day^2
Epoch rev:           01926
Checksum:              313

Satellite: OOREOS
Catalog number: 37224
Epoch time:      11076.42207246
Element set:    0109
Inclination:      071.9712 deg
RA of node:       241.3960 deg
Eccentricity:    0.0017800
Arg of perigee:   096.5373 deg
Mean anomaly:     263.7815 deg
Mean motion:   14.76929834 rev/day
Decay rate:       8.68e-06 rev/day^2
Epoch rev:           01732
Checksum:              300

Satellite: FAST1
Catalog number: 37227
Epoch time:      11097.46438851
Element set:    0020
Inclination:      071.9724 deg
RA of node:       195.1988 deg
Eccentricity:    0.0015711
Arg of perigee:   049.2746 deg
Mean anomaly:     310.9727 deg
Mean motion:   14.76544822 rev/day
Decay rate:       6.49e-06 rev/day^2
Epoch rev:           00232
Checksum:              306

